Weather in Verkhneye

Russia / Kurgan Oblast     54°53′59″N   64°16′22″E
temp.,
°C
wind,
m/s
gust,
m/s
humid.,
%
clouds,
%
prec.,
mm/h
press.,
hPa
HPBL,
m
2 march, tue
tue223:00−17w129683 0.1 101822
02:00−20wsw229960 0.0 101720
05:00−21wsw239938 0.0 101620
08:00−21sw33994 0.0 101429
11:00−15ssw459424 0.0 1014246
14:00−12ssw469285 0.0 1012339
17:00−13s599390 0.0 1010339
20:00−16ssw5119685 0.0 1008252
3 march, wed
wed323:00−16s6119492 0.0 1007250
02:00−15ssw61194100 0.0 1006297
05:00−11ssw71391100 0.1 1005553
08:00−10ssw71392100 0.1 1003574
11:00−6sw81392100 0.3 1003769
14:00−4sw81288100 0.2 1002762
17:00−4sw81287100 0.2 1002701
20:00−4sw61291100 0.0 1002510
4 march, thu
thu423:00−6ssw4119693 0.0 1002225
02:00−4ssw4896100 0.1 1001265
05:00−3ssw4997100 0.7 1000358
08:00−4sw3797100 0.4 998184
11:00−3w4694100 0.6 998402
14:00−2w578696 0.1 998737
17:00−4w6109198 0.3 1000768
20:00−9wsw5128682 0.1 1002220
5 march, fri
fri523:00−11sw5108741 0.1 1004176
02:00−11sw5119027 0.0 1004259
05:00−9sw7159464 0.2 1003598
08:00−6sw91694100 0.8 1001777
11:00−2sw111783100 1.1 1001898
14:000wsw91482100 0.0 1002964
17:00−1sw81493100 0.1 1003957
20:00−1sw91695100 1.3 1002885
6 march, sat
sat623:00−1sw81686100 1.5 1001775
02:000sw10188499 0.5 1000927
05:00−5wnw9168795 0.6 1003714
08:00−11w7148727 0.0 1008358
11:00−9w6118613 0.0 1011475
14:00−8w698519 0.0 1012641
17:00−9w488748 0.0 1013621
20:00−13wsw349172 0.0 101330